sat.trackr.live / text

‹ back to catalog

STARLINK-32006

NORAD 60029 · 2024-111P

PAYLOAD ACTIVE UNKNOWN

§ Identity

Operator
Country
US
Launch date
2024-06-08
Launch site
AFETR
Launch vehicle
Mass (kg)
RCS (m²)

Purposes: comms

External: N2YO · Heavens-Above · Gunter

§ Orbital elements

Epoch: 2026-05-25T02:36:57.645792Z

Period
94.11 min
Inclination
53.1600°
Eccentricity
0.0001256
Mean motion
15.30197495 rev/d
Perigee alt
474.4 km
Apogee alt
476.1 km
Semi-major
6,853.4 km
B*
1.3352e-5
RAAN
80.6647°
Arg perigee
86.6857°
Mean anomaly
273.4288°
Rev number
11,073

§ Raw data

STARLINK-320061 60029U 24111P   26145.10900053  .00000036  00000+0  13352-4 0  99982 60029  53.1600  80.6647 0001256  86.6857 273.4288 15.30197495110739

JSON: /api/v1/satellites/60029 · /tle

For live sub-satellite position, see the globe view (requires WebGL).

§ Visibility from observer

Set your observer location to see the next 7 days of passes ≥ 10°. The values pass through the URL so the page stays shareable.

No JS? Fill the form by hand. The geolocation button needs JavaScript.